User: anonymous   Login
Location: Bismarck
(46.7731°N, 100.8200°W)
Time: 13:20:30
(UTC-05:00)
Language:

Cosmos 2219 Rocket - Orbit

View from above orbital plane
View from above orbital plane
View from above satellite
View from above satellite

Ground track
Ground track

The orbit data is extracted from the following two-line orbital elements,

1 22220U 92076B   18141.19763885 -.00000099  00000-0 -25842-4 0  9999
2 22220  71.0014  67.7424 0010861 123.4667  35.6705 14.16432807318631
Epoch (UTC): 21 May 2018 04:44:35
Eccentricity: 0.0010861
inclination: 71.0014°
perigee height: 829 km
apogee height: 845 km
right ascension of ascending node: 67.7424°
argument of perigee: 123.4667°
revolutions per day: 14.16432807
mean anomaly at epoch: 35.6705°
orbit number at epoch: 31863

The dashed part of the orbit path shows where the satellite is in the earth's shadow,  

DLR